Location: *
(45.5667°S, 177.5167°W)
Time: 15:51:56
(UTC+00:00)

IRIDIUM 103 - Pass Details

Date: 29 May 2022
Orbit: 776 x 779 km, 86.4° (Epoch: 28 June)

Event Time Altitude Azimuth Distance (km) Brightness Sun altitude
Rises 06:15:57 0° 10° (N) 3,252 7.6 -20.1°
Reaches altitude 10° 06:18:19 10° 14° (NNE) 2,333 6.8 -20.5°
Maximum altitude 06:23:26 59° 92° (E) 911 4.3 -21.4°
Enters shadow 06:27:29 17° 166° (SSE) 1,936 6.2 -22.1°
